{"data":{"norad_id":37765,"intl_designator":"2011-039A","name":"SJ-11-02","alt_names":[],"object_type":"PAYLOAD","status":"ACTIVE","operator":null,"country":"PRC","launch_date":"2011-07-29","launch_site_code":"JSC","launch_vehicle":null,"mission":null,"orbit_class":"UNKNOWN","rcs_meters":2.3311,"size_class":null,"mass_kg":null,"dimensions":null,"purposes":[],"wikipedia_slug":null,"has_3d_model":false,"image_url":null,"decayed_at":null,"tle_current":{"epoch":"2026-05-25T03:58:13.406016Z","epoch_age_seconds":60714,"freshness":"FRESH","line1":"1 37765U 11039A   26145.16543294  .00000456  00000+0  95493-4 0  9992","line2":"2 37765  98.2651  35.0773 0010154 342.5212 141.5936 14.64450421790585","mean_motion":14.64450421,"eccentricity":0.0010154,"inclination_deg":98.2651,"raan_deg":35.0773,"arg_perigee_deg":342.5212,"mean_anomaly_deg":141.5936,"bstar":9.5493e-5,"rev_number":79058,"period_min":98.330402951893,"perigee_km":671.67473277979,"apogee_km":686.00604245857,"semimajor_km":7056.9773876192,"source":"CELESTRAK","updated_at":"2026-05-25T13:37:55.263124Z"}}}